Date,TemperatureHighF,TemperatureAvgF,TemperatureLowF,DewpointHighF,DewpointAvgF,DewpointLowF,HumidityHigh,HumidityAvg,HumidityLow,PressureMaxIn,PressureMinIn,WindSpeedMaxMPH,WindSpeedAvgMPH,GustSpeedMaxMPH,PrecipitationSumIn
2013-1-1,25.4,19.8,14.4,20.1,13.2,8.7,87,76,61,30.27,30.12,0,0,0,0.01
2013-1-2,39.2,25.1,15.3,28.5,18.4,9.1,83,76,64,30.22,30.07,0,0,0,0.06
2013-1-3,38.5,29.5,23.6,27.4,22.9,18.3,85,77,62,30.37,30.20,0,0,0,0.04
2013-1-4,45.0,31.2,20.5,31.7,23.9,16.1,86,75,58,30.36,30.19,0,0,0,0.00
2013-1-5,43.6,36.8,29.3,34.8,29.0,23.0,78,73,69,30.19,30.02,0,0,0,0.00
2013-1-6,42.5,29.8,23.0,27.3,21.7,17.6,82,72,51,30.34,30.13,0,0,0,0.00
2013-1-7,51.5,38.3,29.9,31.4,25.8,21.2,71,61,45,30.24,30.01,0,0,0,0.00
2013-1-8,57.1,43.6,35.5,37.4,31.7,27.2,73,63,45,30.16,29.93,0,0,0,0.00
2013-1-9,55.4,42.5,30.6,38.3,31.8,24.8,82,67,50,30.37,30.16,0,0,0,0.00
2013-1-10,49.3,43.3,38.9,47.3,37.6,29.0,93,81,55,30.30,29.73,0,0,0,0.39
2013-1-11,57.8,55.7,48.8,48.6,47.2,40.3,93,73,61,29.73,29.56,0,0,0,0.00
2013-1-12,55.4,31.0,22.5,35.0,19.2,12.2,77,62,43,30.07,29.73,0,0,0,0.00
2013-1-13,29.2,20.0,13.5,14.8,9.4,6.1,73,64,51,30.30,30.01,0,0,0,0.00
2013-1-14,34.6,21.2,13.0,14.6,9.5,5.6,75,61,41,30.44,30.30,0,0,0,0.00
2013-1-15,34.2,22.4,15.8,19.0,11.6,8.5,76,64,44,30.34,30.13,0,0,0,0.01
2013-1-16,47.9,32.7,21.2,29.4,21.1,11.3,73,63,48,30.15,29.99,0,0,0,0.00
2013-1-17,48.1,36.5,28.8,31.0,27.3,24.0,86,70,50,30.44,30.15,0,0,0,0.00
2013-1-18,56.2,43.5,34.2,34.7,30.4,26.6,75,61,44,30.36,30.01,0,0,0,0.00
2013-1-19,61.0,50.8,41.6,37.9,31.6,26.9,67,48,36,30.21,29.95,0,0,0,0.00
2013-1-20,42.1,30.5,21.6,28.4,13.6,8.7,63,49,39,30.35,30.21,0,0,0,0.00
2013-1-21,24.3,19.6,16.4,12.1,6.8,2.6,74,58,41,30.40,30.31,0,0,0,0.00
2013-1-22,34.0,22.4,15.1,13.4,8.2,4.0,63,54,42,30.36,30.21,0,0,0,0.00
2013-1-23,48.2,31.1,17.1,27.6,17.0,7.8,70,57,41,30.37,30.12,0,0,0,0.00
2013-1-24,27.7,22.0,11.3,15.3,7.5,0.6,63,54,43,30.44,30.12,0,0,0,0.00
2013-1-25,47.7,33.9,22.9,24.9,17.5,10.6,61,51,39,30.20,30.09,0,0,0,0.00
2013-1-26,56.9,42.3,30.4,30.7,25.3,18.4,67,52,36,30.24,30.05,0,0,0,0.00
2013-1-27,59.9,50.4,40.1,54.0,44.2,26.0,86,80,48,30.06,29.72,0,0,0,0.11
2013-1-28,75.6,64.9,57.6,60.7,57.1,53.5,87,77,57,29.84,29.65,0,0,0,0.00
2013-1-29,66.6,48.4,36.2,61.0,45.2,34.0,93,89,79,29.66,29.40,0,0,0,1.54
2013-1-30,36.4,27.9,22.3,34.2,23.1,16.5,93,82,72,29.94,29.48,0,0,0,0.02
2013-1-31,25.2,19.0,9.9,20.5,10.9,2.3,83,71,57,30.43,29.90,0,0,0,0.00
2013-2-1,28.1,19.4,8.6,17.8,10.5,1.4,74,68,61,30.41,30.09,0,0,0,0.00
2013-2-2,47.2,36.4,26.3,34.8,27.0,17.5,74,69,61,30.18,30.04,0,0,0,0.02
2013-2-3,49.9,40.3,31.9,30.6,26.7,20.6,77,60,42,30.24,29.82,0,0,0,0.00
2013-2-4,47.5,39.1,25.9,32.7,27.6,20.3,80,64,54,29.96,29.75,0,0,0,0.00
2013-2-5,57.8,39.7,25.0,37.9,28.1,20.0,84,65,42,30.07,29.86,0,0,0,0.00
2013-2-6,64.1,47.9,32.4,42.3,34.4,24.4,75,61,43,30.07,29.86,0,0,0,0.00
2013-2-7,50.8,43.3,32.9,45.6,38.6,27.5,91,83,67,30.16,29.83,0,0,0,1.14
2013-2-8,45.7,34.9,30.6,33.9,28.1,25.6,84,76,60,30.30,30.15,0,0,0,0.00
2013-2-9,50.0,37.8,29.9,38.4,31.5,25.9,88,79,61,30.19,29.72,0,0,0,0.05
2013-2-10,53.6,44.9,36.7,46.4,35.6,24.8,93,71,50,29.88,29.47,0,0,0,0.03
2013-2-11,50.6,38.2,31.0,31.5,25.6,21.3,74,61,45,30.13,29.88,0,0,0,0.00
2013-2-12,44.3,35.5,27.0,30.9,25.0,19.2,77,66,53,30.13,29.92,0,0,0,0.02
2013-2-13,58.9,41.5,28.3,35.0,27.2,22.0,79,59,38,29.92,29.78,0,0,0,0.00
2013-2-14,50.8,42.3,33.8,33.7,27.9,23.0,73,57,43,30.14,29.81,0,0,0,0.00
2013-2-15,39.2,31.3,22.3,26.0,17.1,11.6,81,57,37,30.33,30.14,0,0,0,0.00
2013-2-16,37.6,30.1,19.8,27.5,21.7,15.1,85,71,59,30.27,30.02,0,0,0,0.05
2013-2-17,59.4,44.2,28.4,37.2,29.3,20.5,73,57,43,30.03,29.65,0,0,0,0.00
2013-2-18,54.4,43.5,28.4,45.9,32.5,17.8,82,66,49,30.05,29.52,0,0,0,0.02
2013-2-19,36.2,28.1,23.2,18.0,12.0,6.0,77,53,30,30.31,30.05,0,0,0,0.00
2013-2-20,26.6,22.6,17.6,14.3,8.5,2.5,66,55,46,30.34,30.13,0,0,0,0.00
2013-2-21,27.5,24.4,21.2,25.0,19.8,13.7,91,83,66,30.14,29.72,0,0,0,0.00
2013-2-22,33.7,25.1,16.7,25.8,19.4,11.4,90,79,66,30.04,29.74,0,0,0,0.00
2013-2-23,40.3,25.0,11.0,25.8,16.6,6.4,84,71,54,30.04,29.90,0,0,0,0.00
2013-2-24,51.1,34.2,18.4,31.1,23.3,13.7,85,66,46,29.99,29.86,0,0,0,0.00
2013-2-25,38.2,34.2,31.1,32.2,27.3,23.3,91,76,65,29.93,29.62,0,0,0,0.00
2013-2-26,34.4,32.7,30.8,31.3,30.3,28.5,93,91,86,29.82,29.54,0,0,0,0.00
2013-2-27,34.6,31.8,29.0,29.1,27.4,25.2,92,84,73,30.01,29.80,0,0,0,0.01
2013-2-28,33.5,31.1,28.6,27.9,25.5,23.5,83,80,75,30.16,30.00,0,0,0,0.00
2013-3-1,33.1,28.2,24.5,25.2,22.4,18.9,83,79,69,30.26,30.13,0,0,0,0.00
2013-3-2,38.5,28.6,23.8,25.8,20.2,17.1,82,71,57,30.31,30.14,0,0,0,0.00
2013-3-3,47.2,36.4,25.4,31.8,25.9,19.2,78,66,54,30.14,29.72,0,0,0,0.00
2013-3-4,54.0,42.0,35.1,36.7,31.2,27.8,87,66,51,29.92,29.65,0,0,0,0.44
2013-3-5,37.4,32.7,27.7,31.7,23.0,18.2,89,68,56,30.30,29.92,0,0,0,0.16
2013-3-6,41.0,31.5,24.3,26.1,20.7,16.8,74,65,52,30.38,30.24,0,0,0,0.42
2013-3-7,51.3,37.5,25.2,31.5,25.7,18.7,77,63,46,30.25,30.09,0,0,0,0.20
2013-3-8,59.9,48.8,36.5,41.8,36.6,27.7,72,63,48,30.17,29.95,0,0,0,0.00
2013-3-9,59.0,51.9,46.3,52.7,45.5,38.1,92,79,65,29.96,29.58,0,0,0,0.54
2013-3-10,53.8,43.3,29.3,51.5,40.9,25.7,93,91,86,29.86,29.52,0,0,0,0.01
2013-3-11,36.7,31.7,26.6,27.2,23.9,22.0,84,73,60,29.99,29.83,0,0,0,0.00
2013-3-12,49.7,37.3,29.7,34.5,25.0,21.2,78,62,40,30.29,29.97,0,0,0,0.00
2013-3-13,46.1,34.9,24.8,28.4,22.3,18.7,79,61,43,30.44,30.27,0,0,0,0.00
2013-3-14,70.7,51.5,34.9,46.1,34.2,23.9,65,53,38,30.27,30.02,0,0,0,0.00
2013-3-15,81.5,60.8,39.8,51.8,42.7,32.3,77,54,33,30.06,29.64,0,0,0,0.00
2013-3-16,60.1,44.7,37.8,45.1,34.5,27.0,81,68,56,30.03,29.67,0,0,0,0.00
2013-3-17,37.8,34.3,32.8,31.6,28.6,25.2,90,80,66,30.04,29.73,0,0,0,0.13
2013-3-18,54.2,42.3,34.6,38.3,29.3,18.4,92,64,34,30.03,29.71,0,0,0,0.01
2013-3-19,39.4,34.9,30.1,34.2,25.1,16.8,87,68,49,30.22,30.01,0,0,0,0.07
2013-3-20,38.7,32.7,25.2,31.2,16.5,10.2,89,54,34,30.35,30.08,0,0,0,0.00
2013-3-21,29.5,27.8,25.0,25.7,18.0,11.4,86,67,52,30.08,29.87,0,0,0,0.00
2013-3-22,34.2,31.9,29.3,29.8,27.8,25.7,89,85,80,29.98,29.90,0,0,0,0.04
2013-3-23,37.3,34.2,32.8,30.2,28.8,28.1,85,81,72,30.00,29.93,0,0,0,0.03